Location: Unspecified
(0.0000°N, 0.0000°E)
Time: 01:39:58
(UTC+00:00)

Vanguard 2 Rocket - Pass Details

Date: 16 December 2017
Orbit: 553 x 3328 km, 32.9° (Epoch: 24 April)

Event Time Altitude Azimuth Distance (km) Brightness Sun altitude
Rises 13:06:55 0° 205° (SSW) 2,736 9.8 61.0°
Reaches altitude 10° 13:09:38 10° 182° (S) 1,938 9.1 60.6°
Maximum altitude 13:12:30 17° 140° (SE) 1,697 8.6 60.1°
Drops below altitude 10° 13:15:57 10° 99° (E) 2,420 9.1 59.6°
Sets 13:19:57 0° 80° (E) 3,793 9.8 59.0°
